Kotlas, Russia
Current Conditions -  °F | °C
As of 8:00 PM on Friday 24 Oct 2014 (Local Time) from UUYY Reporting Station
Snow Showers Snow Showers  
Wind Chill: 12°   Ceiling: 6600
Heat Index: 23°   Visibility: 2.5mi
Dew Point: 16°   Wind: 11mph
Humidity: 74%   Direction: 340°NNW
Pressure: 30.3"   Gusts: 20mph
Location:  61.26°N, 46.66°E
Report Text: UUYY 241700Z 34005G09MPS 4000 -SHSN SCT023CB OVC066 M05/M09 Q1026 TEMPO 2000 SHSN 0182//49 RMK QFE760/1014
Loading
Personal Weather Stations






























Interactive Weather Map
Tropical Storm Tracking
New forecast layout! Learn more

10-Day Weather Forecast

Advertisements
Track Severe Weather on mobile